Weather History for West Palm Beach, FL

Change the Weather History Date:

Monday, March 25, 2013

  Actual Average Record
Temperature  
Mean Temperature 71 °F 71 °F  
Max Temperature 81 °F 79 °F 91 °F (1952)
Min Temperature 60 °F 63 °F 42 °F (1915)
Degree Days  
Heating Degree Days 0 0  
Month to date heating degree days 59 22  
Since 1 July heating degree days 142 227  
Cooling Degree Days 6 7  
Month to date cooling degree days 86 151  
Year to date cooling degree days 467 386  
Growing Degree Days 22 (Base 50)    
Moisture  
Dew Point 59 °F    
Average Humidity 60    
Maximum Humidity 93    
Minimum Humidity 26    
Precipitation  
Precipitation 0.00 in 0.15 in 4.15 in (1970)
Month to date precipitation 0.97 3.71  
Year to date precipitation 4.16 9.66  
Snow  
Snow 0.00 in - - ()
Month to date snowfall 0.0  
Since 1 July snowfall 0.0  
Snow Depth 0.00 in    
Sea Level Pressure  
Sea Level Pressure 29.82 in    
Wind  
Wind Speed 10 mph (West)    
Max Wind Speed 17 mph    
Max Gust Speed 21 mph    
Visibility 10 miles    
Events      
T = Trace of Precipitation, MM = Missing Value Source: NWS Daily Summary

Daily Weather History Graph

Daily Weather History Graph

Search for Another Location

Airport:

Trip Planner

Search our weather history database for the weather conditions in past years. The results will help you decide how hot, cold, wet, or windy it might be!

Date:

Astronomy

Mar. 25, 2013 Rise Set
Actual Time 7:18 AM EDT 7:34 PM EDT
Civil Twilight 6:55 AM EDT 7:57 PM EDT
Nautical Twilight 6:28 AM EDT 8:24 PM EDT
Astronomical Twilight 6:01 AM EDT 8:51 PM EDT
Moon 6:09 PM EDT (3/25) 5:53 AM EDT (3/25)
Length of Visible Light 13h 02m
Length of Day
12h 15m
Waxing Gibbous, 96% of the Moon is Illuminated
Mar 25
Waxing Gibbous
Mar 27
Full
Apr 3
Last Quarter
Apr 10
New
Apr 18
First Quarter

Hourly Weather History & Observations

Time (EDT) Temp. Dew Point Humidity Pressure Visibility Wind Dir Wind Speed Gust Speed Precip Events Conditions
12:40 AM 73.4 °F 71.6 °F 94% 29.76 in 10.0 mi SSW 4.6 mph - N/A   Mostly Cloudy
12:53 AM 73.0 °F 71.1 °F 93% 29.76 in 10.0 mi South 4.6 mph - N/A   Mostly Cloudy
1:31 AM 73.4 °F 71.6 °F 94% 29.76 in 10.0 mi SW 5.8 mph - N/A   Mostly Cloudy
1:43 AM 73.4 °F 71.6 °F 94% 29.75 in 10.0 mi SW 8.1 mph - N/A   Mostly Cloudy
1:53 AM 73.9 °F 71.1 °F 91% 29.75 in 10.0 mi WSW 5.8 mph - N/A   Mostly Cloudy
2:38 AM 73.4 °F 71.6 °F 94% 29.75 in 10.0 mi WSW 8.1 mph - N/A   Mostly Cloudy
2:43 AM 73.4 °F 71.6 °F 94% 29.75 in 10.0 mi WSW 10.4 mph - N/A   Overcast
2:53 AM 73.9 °F 72.0 °F 93% 29.75 in 10.0 mi WSW 6.9 mph - N/A   Overcast
2:58 AM 73.4 °F 71.6 °F 94% 29.75 in 10.0 mi WSW 8.1 mph - N/A   Overcast
3:18 AM 73.4 °F 71.6 °F 94% 29.75 in 10.0 mi WSW 9.2 mph - N/A   Overcast
3:48 AM 73.4 °F 71.6 °F 94% 29.75 in 10.0 mi West 6.9 mph - N/A   Overcast
3:53 AM 73.9 °F 72.0 °F 93% 29.75 in 10.0 mi West 6.9 mph - N/A   Overcast
4:53 AM 73.9 °F 71.1 °F 91% 29.75 in 10.0 mi WNW 10.4 mph - N/A   Overcast
5:09 AM 73.4 °F 71.6 °F 94% 29.75 in 10.0 mi NW 9.2 mph - N/A   Mostly Cloudy
5:17 AM 73.4 °F 69.8 °F 88% 29.74 in 10.0 mi NW 10.4 mph - N/A   Mostly Cloudy
5:53 AM 72.0 °F 69.1 °F 91% 29.74 in 10.0 mi West 4.6 mph - N/A   Scattered Clouds
6:53 AM 71.1 °F 66.9 °F 87% 29.76 in 9.0 mi WNW 12.7 mph - N/A   Scattered Clouds
7:53 AM 69.1 °F 66.0 °F 90% 29.79 in 10.0 mi West 6.9 mph - N/A   Scattered Clouds
8:53 AM 70.0 °F 64.0 °F 81% 29.84 in 7.0 mi WNW 6.9 mph - N/A   Scattered Clouds
9:53 AM 72.0 °F 62.1 °F 71% 29.87 in 10.0 mi West 6.9 mph - N/A   Mostly Cloudy
10:53 AM 72.0 °F 63.0 °F 73% 29.88 in 10.0 mi WNW 9.2 mph - N/A   Overcast
11:53 AM 73.9 °F 57.9 °F 57% 29.87 in 10.0 mi NW 12.7 mph - N/A   Mostly Cloudy
12:53 PM 78.1 °F 52.0 °F 40% 29.88 in 10.0 mi NW 12.7 mph - N/A   Mostly Cloudy
1:53 PM 78.1 °F 48.9 °F 36% 29.86 in 10.0 mi NW 10.4 mph 18.4 mph N/A   Scattered Clouds
2:53 PM 80.1 °F 51.1 °F 36% 29.85 in 10.0 mi WNW 11.5 mph 18.4 mph N/A   Scattered Clouds
3:53 PM 80.1 °F 51.1 °F 36% 29.84 in 10.0 mi NW 8.1 mph - N/A   Scattered Clouds
4:53 PM 78.1 °F 51.1 °F 39% 29.84 in 10.0 mi West 12.7 mph - N/A   Scattered Clouds
5:53 PM 77.0 °F 39.9 °F 26% 29.86 in 10.0 mi WNW 12.7 mph - N/A   Scattered Clouds
6:53 PM 75.0 °F 39.0 °F 27% 29.89 in 10.0 mi WNW 11.5 mph - N/A   Mostly Cloudy
7:53 PM 72.0 °F 37.0 °F 28% 29.91 in 10.0 mi WNW 15.0 mph 19.6 mph N/A   Scattered Clouds
8:53 PM 68.0 °F 36.0 °F 31% 29.94 in 10.0 mi WNW 9.2 mph - N/A   Partly Cloudy
9:53 PM 64.0 °F 35.1 °F 34% 29.96 in 10.0 mi WNW 6.9 mph - N/A   Partly Cloudy
10:53 PM 63.0 °F 36.0 °F 37% 29.98 in 10.0 mi WNW 9.2 mph - N/A   Partly Cloudy
11:53 PM 62.1 °F 39.9 °F 44% 29.99 in 10.0 mi WNW 10.4 mph - N/A   Scattered Clouds